Terminal Aerodrome Forecast
Issued by NWS

Home | Current Version | Previous Version | Text Only | Print | Product List | Glossary On
Versions: 1 2 3 4 5 6 7 8 9 10 11 12 13 14 15 16 17 18 19 20 21 22 23 24 25 26 27 28 29 30 31 32 33 34 35 36 37 38 39 40 41 42 43 44 45 46 47 48 49 50
000
FTAK31 PANC 042338
TAFADU
TAF
PADU 042338Z 0500/0524 35010G18KT P6SM FEW005 SCT015
     FM050600 34009KT P6SM BKN005
     FM051200 34005KT 2SM BR OVC003
     FM051900 34010KT P6SM BKN015
     FM052200 34012KT P6SM SCT015=

USA.gov is the U.S. government's official web portal to all federal, state and local government web resources and services.